Location: Anjeux
(47.8815°N, 6.2076°E)
Time: 16:55:42
(UTC+00:00)

ARIANE 5 R/B - Visible Passes

Search period start: 24 June 2021 00:00
Search period end: 04 July 2021 00:00
Orbit: 748 x 795 km, 98.7° (Epoch: 24 June)

Date Brightness Start Highest point End Pass type
(mag) Time Alt. Az. Time Alt. Az. Time Alt. Az.
24 Jun 3.8 02:14:43 10° NNE 02:19:21 36° E 02:23:58 10° SSE visible
25 Jun 4.7 01:40:41 10° NE 01:44:09 18° E 01:47:36 10° SE visible
26 Jun 2.9 02:43:49 10° NNE 02:48:48 65° ESE 02:53:48 10° S visible
27 Jun 4.0 02:09:15 10° NNE 02:13:45 32° E 02:18:15 10° SSE visible
28 Jun 4.9 01:35:22 10° NE 01:38:31 17° E 01:41:40 10° SE visible
29 Jun 3.0 02:38:16 10° NNE 02:43:14 58° ESE 02:48:13 10° S visible
30 Jun 4.1 02:03:48 10° NE 02:08:09 29° E 02:12:32 10° SSE visible
01 Jul 4.9 01:30:06 10° NE 01:32:54 15° E 01:35:41 10° ESE visible
02 Jul 3.2 02:32:45 10° NNE 02:37:40 52° E 02:42:36 10° S visible
03 Jul 4.3 01:58:21 10° NE 02:02:33 26° E 02:06:47 10° SSE visible
